Current Version              Previous Version:    01  02  03  04  05  06  07  08  09  10  11  12  13  14  15  16  17  18  19  20  21  22  23  24  25  26  27  28  29  30  
   31  32  33  34  35  36  37  38  39  40  41  42  43  44  45  46  47  48  49  50  51  52  53  54  55  56  57  58  59  60  

[Printable]
440
ASUS44 KFWD 171403
RWRTX
NORTH TEXAS HOURLY WEATHER ROUNDUP
NATIONAL WEATHER SERVICE FORT WORTH TX
900 AM CDT THU APR 17 2014

NOTE: "FAIR" INDICATES FEW OR NO CLOUDS BELOW 12,000 FEET WITH NO
SIGNIFICANT WEATHER AND/OR OBSTRUCTIONS TO VISIBILITY.

TXZ118-119-171500-
DALLAS/FORT WORTH METROPLEX

CITY           SKY/WX    TMP DP  RH WIND       PRES   REMARKS
DFW AIRPORT    MOSUNNY   56  48  74 SE9       30.12R
DALLAS LOVE    CLOUDY    55  47  74 SE10      30.13R
FTW MEACHAM    CLOUDY    56  50  80 SE8       30.12R
DAL-EXECUTIVE  MOSUNNY   53  48  83 SE5       30.12R
FTW-ALLIANCE   PTSUNNY   54  49  83 SE6       30.12R
FTW-NAS-JRB    MOSUNNY   59  48  67 VRB5      30.16R
FTW-SPINKS     PTSUNNY   55  50  82 SE5       30.13R FOG
ARLINGTON      CLOUDY    57  50  77 SE7       30.12R
GRAND PRAIRIE  PTSUNNY   55  48  76 SE3       30.15R
LANCASTER      PTSUNNY   52  47  81 E5        30.14R
$$

TXZ091>094-102>105-117-120-121-131>134-171500-
NORTH CENTRAL TEXAS

CITY           SKY/WX    TMP DP  RH WIND       PRES   REMARKS
SHRMAN/DENISON CLOUDY    52  45  77 SE8       30.17R
GAINESVILLE    PTSUNNY   52  46  80 E8        30.17R
BOWIE          CLOUDY    54  50  86 SE8       30.12R
BRIDGEPORT     CLOUDY    55  48  79 SE8       30.14R
DECATUR        CLOUDY    52  48  87 SE6       30.13R
DENTON         CLOUDY    55  49  80 SE9       30.13R
MCKINNEY       CLOUDY    52  47  83 CALM      30.15R
GREENVILLE     MOSUNNY   54  46  76 SE7       30.16R
ROCKWALL       CLOUDY    53  47  82 E6        30.13R
TERRELL        PTSUNNY   56  50  80 SE7       30.14R
WAXAHACHIE     CLOUDY    52  48  88 E5        30.14R
CLEBURNE       CLOUDY    54  52  94 SE9       30.13R
GRANBURY       CLOUDY    56  51  81 SE7       30.12R
$$

TXZ083>090-098>101-113>116-127>130-139>142-154-155-171500-
WESTERN NORTH TEXAS

CITY           SKY/WX    TMP DP  RH WIND       PRES   REMARKS
WICHITA FALLS  MOSUNNY   56  48  74 S13       30.09R
WF-KICKAPOO    SUNNY     55  48  78 SE13      30.11R
VERNON         PTSUNNY   52  44  73 SE6       30.09R
ABILENE        CLOUDY    53  50  89 E15       30.06R FOG
ABILENE-DYESS  CLOUDY    54  50  87 E16       30.04F
BRECKENRIDGE   CLOUDY    58  50  74 SE10      30.09R
MINERAL WELLS  PTSUNNY   56  50  80 SE10      30.10R
STEPHENVILLE   CLOUDY    53  51  91 E6        30.12R
COMANCHE       DRIZZLE   53  52  99 E5        30.08R
BROWNWOOD      CLOUDY    54  54 100 E10       30.09R FOG
COLEMAN        DRIZZLE   55  53  92 E7        30.08R
BRADY          CLOUDY    57  52  82 E6        30.02R
$$

TXZ143>147-156>162-174-175-171500-
CENTRAL TEXAS

CITY           SKY/WX    TMP DP  RH WIND       PRES   REMARKS
WACO           CLOUDY    56  51  84 SE12      30.10R
WACO-MCGREGOR  PTSUNNY   55  48  76 E7        30.11R
HILLSBORO      CLOUDY    52  49  89 E10       30.11R FOG
CORSICANA      CLOUDY    56  50  80 SE10      30.13R
MEXIA          CLOUDY    55  50  85 E9        30.10S
HEARNE         CLOUDY    57  52  82 E7        30.08F
CAMERON        CLOUDY    57  53  86 E6        30.07S
TEMPLE         CLOUDY    55  48  76 E9        30.10S
KILLEEN        CLOUDY    55  54  94 E8        30.07R
KILLEEN-SKYLRK PTSUNNY   55  48  76 E7        30.06R
GATESVILLE     CLOUDY    55  54  94 CALM      30.10R FOG
HAMILTON       DRIZZLE   54  54 100 E8        30.08R
LAMPASAS       CLOUDY    55  53  92 E7        30.06R
$$

TXZ095>097-106>112-122>126-135>138-148>153-164>167-171500-
EAST TEXAS

CITY           SKY/WX    TMP DP  RH WIND       PRES   REMARKS
PARIS          SUNNY     52  43  71 E9        30.19R
SULPHUR SPRNGS SUNNY     53  46  77 SE5       30.19R
CLARKSVILLE    SUNNY     53  44  70 E5        30.20R
MOUNT PLEASANT MOSUNNY   51  47  86 CALM      30.20R
MINEOLA        CLOUDY    48  46  93 E3        30.17R
TYLER          CLOUDY    57  48  72 SE12      30.14S
LONGVIEW       CLOUDY    51  46  83 E6        30.16S
MARSHALL       CLOUDY    51  46  83 CALM      30.20S
ATHENS         CLOUDY    54  48  82 SE6       30.13S
PALESTINE      CLOUDY    56  48  75 E8        30.15R
JACKSONVILLE   CLOUDY    49  46  87 E3        30.16R
NACOGDOCHES    CLOUDY    55  46  71 E8        30.14S
LUFKIN         CLOUDY    59  50  72 E9        30.12S
$$

SUPPLEMENTAL OBSERVATIONS (CENTRAL)

CITY           SKY/WX    TMP DP  RH WIND       PRES   REMARKS
$$

SUPPLEMENTAL OBSERVATIONS (WEST)

CITY           SKY/WX    TMP DP  RH WIND       PRES   REMARKS
$$

SUPPLEMENTAL OBSERVATIONS (EAST)

CITY           SKY/WX    TMP DP  RH WIND       PRES   REMARKS
$$

SUPPLEMENTAL OBSERVATIONS ARE A COLLECTION OF AUTOMATED INSTRUMENTS
THAT ARE MAINTAINED BY A VARIETY OF FEDERAL AND STATE AGENCIES.
CERTAIN ELEMENTS...SUCH AS HUMIDITY VALUES AND SUSTAINED WIND
SPEEDS...MAY BE APPROXIMATED.